TimeEST,TemperatureF,Dew PointF,Humidity,Sea Level PressureIn,VisibilityMPH,Wind Direction,Wind SpeedMPH,Gust SpeedMPH,PrecipitationIn,Events,Conditions,WindDirDegrees,DateUTC
12:54 AM,54.0,42.1,64,29.91,10.0,NNW,6.9,-,N/A,,Clear,330,2008-12-20 05:54:00
1:54 AM,53.6,42.8,67,29.95,10.0,NNW,9.2,-,N/A,,Clear,340,2008-12-20 06:54:00
2:54 AM,52.0,44.1,74,29.92,10.0,NNW,9.2,-,N/A,,Clear,340,2008-12-20 07:54:00
3:54 AM,50.0,45.0,83,29.92,10.0,North,9.2,-,N/A,,Clear,350,2008-12-20 08:54:00
4:54 AM,51.1,46.0,83,29.92,10.0,NNW,8.1,-,N/A,,Clear,340,2008-12-20 09:54:00
5:54 AM,51.1,46.0,83,29.92,10.0,NW,11.5,-,N/A,,Clear,320,2008-12-20 10:54:00
6:54 AM,51.1,46.0,83,29.93,10.0,NW,11.5,-,N/A,,Clear,320,2008-12-20 11:54:00
7:54 AM,52.0,46.0,80,29.92,10.0,NNW,10.4,-,N/A,,Clear,330,2008-12-20 12:54:00
8:54 AM,52.0,46.0,80,29.94,10.0,Calm,Calm,-,N/A,,Clear,0,2008-12-20 13:54:00
9:54 AM,55.0,46.9,74,29.94,10.0,South,5.8,-,N/A,,Clear,170,2008-12-20 14:54:00
10:54 AM,57.0,45.0,64,29.94,10.0,Calm,Calm,-,N/A,,Overcast,0,2008-12-20 15:54:00
11:54 AM,55.9,46.9,72,29.93,10.0,NNW,8.1,-,N/A,,Overcast,340,2008-12-20 16:54:00
12:54 PM,55.9,48.0,75,29.89,10.0,NW,5.8,-,0.00,,Overcast,320,2008-12-20 17:54:00
1:54 PM,57.0,46.9,69,29.86,10.0,Calm,Calm,-,0.00,,Mostly Cloudy,0,2008-12-20 18:54:00
2:54 PM,57.0,46.9,69,29.85,10.0,Calm,Calm,-,0.00,Rain,Light Rain,0,2008-12-20 19:54:00
3:34 PM,55.4,48.2,77,29.92,2.0,Calm,Calm,-,0.02,Rain,Rain,0,2008-12-20 20:34:00
3:54 PM,54.0,52.0,93,29.87,9.0,Calm,Calm,-,0.03,Rain,Light Rain,0,2008-12-20 20:54:00
4:54 PM,54.0,51.1,90,29.90,10.0,North,9.2,-,0.01,Rain,Light Rain,350,2008-12-20 21:54:00
5:54 PM,52.0,50.0,93,29.88,10.0,Calm,Calm,-,0.00,Rain,Light Rain,0,2008-12-20 22:54:00
6:54 PM,51.8,51.8,100,29.93,7.0,Calm,Calm,-,N/A,Rain,Light Rain,0,2008-12-20 23:54:00
7:54 PM,51.1,51.1,100,29.90,4.0,South,3.5,-,0.03,Rain,Light Rain,190,2008-12-21 00:54:00
8:16 PM,51.8,51.8,100,29.92,4.0,South,3.5,-,0.02,Rain,Light Rain,190,2008-12-21 01:16:00
8:54 PM,50.0,50.0,100,29.87,10.0,South,3.5,-,0.02,,Overcast,180,2008-12-21 01:54:00
9:54 PM,50.0,48.9,96,29.84,8.0,South,8.1,-,0.00,,Mostly Cloudy,170,2008-12-21 02:54:00
10:12 PM,50.0,48.2,94,29.86,9.0,South,9.2,-,N/A,,Mostly Cloudy,190,2008-12-21 03:12:00
10:36 PM,50.0,48.2,94,29.85,10.0,Calm,Calm,-,N/A,,Mostly Cloudy,0,2008-12-21 03:36:00
10:54 PM,50.0,48.9,96,29.81,8.0,Calm,Calm,-,0.00,,Overcast,0,2008-12-21 03:54:00
11:23 PM,50.0,50.0,100,29.84,9.0,SSE,4.6,-,N/A,,Overcast,150,2008-12-21 04:23:00
11:54 PM,51.1,50.0,96,29.79,6.0,SE,3.5,-,0.01,Rain,Light Rain,130,2008-12-21 04:54:00